Regional Weather Roundup
Issued by NWS

Home | Current Version | Previous Version | Text Only | Print | Product List | Glossary Off
Versions: 1 2 3 4 5 6 7 8 9 10 11 12 13 14 15 16 17 18 19 20 21 22 23 24 25 26 27 28 29 30 31 32 33 34 35 36 37 38 39 40 41 42 43 44 45 46 47 48 49 50

000
ASUS43 KDTX 182110
RWRMI
MICHIGAN HOURLY REGIONAL WEATHER ROUNDUP
NATIONAL WEATHER SERVICE DETROIT/PONTIAC MI
500 PM EDT SUN AUG 18 2019

NOTE: "FAIR" INDICATES FEW OR NO CLOUDS BELOW 12,000 FEET WITH NO
SIGNIFICANT WEATHER AND/OR OBSTRUCTION TO VISIBILITY.

MIZ047>049-052>055-059>063-066>070-074>076-081>083-182200-
SOUTHEAST LOWER MICHIGAN

CITY           SKY/WX    TMP DP  RH WIND       PRES   REMARKS
ADRIAN         FAIR      75  67  76 SW10      29.87F
ALMA           FAIR      84  64  49 SW10G26   29.81R
ANN ARBOR      FAIR      78  70  76 S8        29.85F
BAD AXE        FAIR      76  70  80 S9        29.78R
CARO           FAIR      82  69  65 S10       29.78R
DETROIT CITY   FAIR      79  65  62 S16       29.85S
DETROIT        CLOUDY    76  68  76 S12       29.86F
FLINT          FAIR      82  68  62 S12G20    29.79S
GROSSE ILE     FAIR      75  69  83 S10       29.86F
HILLSDALE      FAIR      78  71  79 S10G21    29.86S
HOWELL         FAIR      82  66  57 S12G17    29.81F

CITY           SKY/WX    TMP DP  RH WIND       PRES   REMARKS
JACKSON        FAIR      81  68  64 S13       29.83F
LAMBERTVILLE   FAIR      74  70  85 S3        29.87S
LANSING        FAIR      82  67  60 S14       29.81R
LAPEER         FAIR      83  68  61 S13       29.81R
MASON          FAIR      80  70  70 SE13G21   29.81S
MT. CLEMENS    PTSUNNY   78  72  83 S15       29.82R
PONTIAC        PTSUNNY   82  66  58 S13G21    29.81F
PORT HOPE        N/A     73  68  84 SE13      29.77R
PORT HURON     FAIR      79  68  69 S8        29.84R
TRI CITIES     FAIR      84  64  50 SW20G30   29.79R
MIDLAND        FAIR      85  64  48 SW17      29.78R
TROY           FAIR      84  67  58 S15       29.85S
SAGINAW HB     FAIR      82  66  57 S13       29.78R
$$
MIZ043>046-050>051-056>058-064>065-071>073-077>080-182200-
SOUTHWEST LOWER MICHIGAN

CITY           SKY/WX    TMP DP  RH WIND       PRES   REMARKS
BATTLE CREEK   FAIR      81  71  71 S20G28    29.83R
BENTON HARBOR  FAIR      79  72  79 W13G25    29.84R
BIG RAPIDS     FAIR      74  66  74 W16G26    29.80R
COLDWATER      FAIR      80  71  74 S12G17    29.83F
FREMONT        PTSUNNY   73  67  81 SW10G18   29.82R
HOLLAND        FAIR      81  72  74 W17G28    29.84R
GRAND RAPIDS   PTSUNNY   83  67  58 W20G30    29.83R
IONIA          PTSUNNY   83  66  56 SW15G22   29.82R
KALAMAZOO      FAIR      84  71  65 S13G24    29.82R
LUDINGTON      CLOUDY    73  67  80 SW15      29.80R
MARSHALL       FAIR      81  71  71 S7G17     29.82F
MOUNT PLEASANT FAIR      82  66  57 SW20G28   29.78R
MUSKEGON       CLOUDY    75  67  76 SW13G21   29.84R
SOUTH HAVEN    FAIR      80  74  83 W12       29.84R
$$
MIZ016>042-182200-
NORTHERN LOWER MICHIGAN

CITY           SKY/WX    TMP DP  RH WIND       PRES   REMARKS
ALPENA         FAIR      84  63  49 SW15G23   29.70F
BEAVER ISLAND  CLOUDY    73  65  77 SW22G33   29.67S
BELLAIRE       CLOUDY    81  64  55 SW10G23   29.72R
CADILLAC       PTSUNNY   76  64  67 SW14G25   29.78R
CHARLEVOIX     FAIR      80  63  56 SW25G33   29.73R
FRANKFORT      PTSUNNY   78  65  63 SW14G22   29.76R
GAYLORD        FAIR      76  63  64 SW16G29   29.73S
GRAYLING       FAIR      78  64  61 W13G23    29.74R
HARBOR SPRINGS CLOUDY    76  67  76 W13G20    29.68R
HOUGHTON LAKE  FAIR      76  65  68 SW15G24   29.77R
MANISTEE       FAIR      76  66  71 SW14G26   29.78R
OSCODA         FAIR      79  68  67 S9        29.74S
PELLSTON       PTSUNNY   80  64  58 SW21G31   29.67S
ROGERS CITY    FAIR      83  64  52 SW14G24   29.68S
TRAVERSE CITY  PTSUNNY   81  63  54 SW24G37   29.71R
$$
MIZ007>008-015-182200-
EASTERN UPPER MICHIGAN

CITY           SKY/WX    TMP DP  RH WIND       PRES   REMARKS
KINROSS        PTSUNNY   77  64  64 SW16G23   29.65S
MACKINAC ISLAN PTSUNNY   77  64  63 SW20G30   29.66S
NEWBERRY       CLOUDY    71  68  91 SW20G29   29.62S
S. S. MARIE    PTSUNNY   78  67  68 SE14      29.62F
MUNISING         N/A     69  66  90 W9        29.60R
$$
MIZ004>006-011>014-085-182200-
CENTRAL UPPER MICHIGAN

CITY           SKY/WX    TMP DP  RH WIND       PRES   REMARKS
MANISTIQUE     CLOUDY    73  65  77 SW12G20   29.62S
ESCANABA       PTSUNNY   78  62  57 W26G37    29.64R
MENOMINEE      FAIR      78  63  59 W9G21     29.71R
SAWYER-GWINN   PTSUNNY   72  64  78 W23G30    29.64R
$$
MIZ001>003-009>011-084-182200-
WESTERN UPPER MICHIGAN

CITY           SKY/WX    TMP DP  RH WIND       PRES   REMARKS
IRON MOUNTAIN  PTSUNNY   76  61  59 W18G28    29.69R
HOUGHTON       CLOUDY    64  61  90 NW17G28   29.65R
COPPER HARBOR    N/A     65  62  90 N10G24    29.60R
IRONWOOD       FAIR      68  55  63 W15G23    29.77S
$$

ABBREVIATIONS USED IN REMARKS
   TC - TEMPERATURE IN CELSIUS
  WCI - WIND CHILL INDEX
   HX - HEAT INDEX
  VSB - VISIBILITY




USA.gov is the U.S. government's official web portal to all federal, state and local government web resources and services.